Paris, IL

5:23 AM CST on January 24, 2017 (GMT -0600)
Edgar County

Weather History for KPRG - February, 2014

Change the Weather History Date:

Thursday, February 20, 2014

  Actual Average (KHUF) Record (KHUF)
Temperature  
Mean Temperature 48 °F -  
Max Temperature 59 °F 40 °F 71 °F (2016)
Min Temperature 36 °F 23 °F -10 °F (2015)
Degree Days  
Heating Degree Days 18    
Moisture  
Dew Point 39 °F    
Average Humidity 85    
Maximum Humidity 97    
Minimum Humidity 73    
Precipitation  
Precipitation 0.36 in - - ()
Sea Level Pressure  
Sea Level Pressure 29.62 in    
Wind  
Wind Speed 14 mph (South)    
Max Wind Speed 36 mph    
Max Gust Speed 47 mph    
Visibility 8 miles    
Events Rain , Thunderstorm    
Averages and records for this station are not official NWS values.
T = Trace of Precipitation, MM = Missing Value Source: NWS Daily Summary

Daily Weather History Graph

Daily Weather History Graph

Search for Another Location

Airport or City:

Trip Planner

Search our weather history database for the weather conditions in past years. The results will help you decide how hot, cold, wet, or windy it might be!

Date:

Astronomy

Feb. 20, 2014 Rise Set
Actual Time 6:36 AM CST 5:32 PM CST
Civil Twilight 6:09 AM CST 6:00 PM CST
Nautical Twilight 5:37 AM CST 6:31 PM CST
Astronomical Twilight 5:06 AM CST 7:02 PM CST
Moon 11:25 PM CST (2/20) 9:20 AM CST (2/20)
Length of Visible Light 11h 51m
Length of Day
10h 56m
Waning Gibbous, 70% of the Moon is Illuminated
Feb 20
Waning Gibbous
Feb 22
Last Quarter
Mar 1
New
Mar 8
First Quarter
Mar 16
Full

Hourly Weather History & Observations

Time (CST) Temp. Windchill Dew Point Humidity Pressure Visibility Wind Dir Wind Speed Gust Speed Precip Events Conditions
12:15 AM 36.3 °F 30.1 °F 31.1 °F 81% 29.90 in 10.0 mi East 8.1 mph - N/A   Clear
12:35 AM 37.4 °F 32.1 °F 31.1 °F 78% 29.90 in 10.0 mi SE 6.9 mph - N/A Thunderstorm Scattered Clouds
12:55 AM 37.0 °F 30.4 °F 31.1 °F 79% 29.87 in 10.0 mi ESE 9.2 mph - N/A   Scattered Clouds
1:15 AM 39.2 °F 32.0 °F 31.1 °F 73% 29.84 in 10.0 mi ESE 11.5 mph 17.3 mph N/A   Scattered Clouds
1:35 AM 37.6 °F 31.0 °F 31.1 °F 77% 29.85 in 10.0 mi ESE 9.2 mph - N/A   Scattered Clouds
1:55 AM 38.3 °F 33.2 °F 31.5 °F 76% 29.82 in 10.0 mi ESE 6.9 mph - N/A   Overcast
2:15 AM 37.8 °F 31.8 °F 31.6 °F 79% 29.83 in 7.0 mi SSE 8.1 mph - 0.01 in Rain , Thunderstorm Heavy Thunderstorms and Rain
2:35 AM 37.0 °F 30.4 °F 32.9 °F 85% 29.80 in 7.0 mi ESE 9.2 mph - 0.05 in Rain , Thunderstorm Rain
2:55 AM 38.3 °F 32.5 °F 33.4 °F 83% 29.78 in 7.0 mi ESE 8.1 mph - 0.07 in Rain Rain
3:15 AM 39.2 °F 32.5 °F 33.4 °F 80% 29.76 in 10.0 mi ESE 10.4 mph 16.1 mph N/A Thunderstorm Overcast
3:35 AM 38.3 °F 31.4 °F 32.5 °F 80% 29.75 in 10.0 mi ESE 10.4 mph 18.4 mph N/A Thunderstorm Thunderstorm
3:55 AM 38.5 °F 31.6 °F 32.9 °F 80% 29.72 in 10.0 mi ESE 10.4 mph 16.1 mph N/A   Overcast
4:15 AM 37.6 °F 30.0 °F 33.1 °F 84% 29.71 in 2.5 mi SE 11.5 mph - 0.05 in Rain , Thunderstorm Heavy Thunderstorms and Rain
4:35 AM 39.2 °F 31.6 °F 34.0 °F 82% 29.70 in 7.0 mi SE 12.7 mph 18.4 mph 0.07 in Thunderstorm Thunderstorm
4:55 AM 38.7 °F 30.5 °F 33.8 °F 83% 29.68 in 10.0 mi SE 13.8 mph - 0.07 in   Overcast
5:15 AM 38.3 °F 30.1 °F 33.8 °F 84% 29.67 in 10.0 mi SE 13.8 mph - N/A   Overcast
5:35 AM 38.3 °F 30.5 °F 34.3 °F 86% 29.67 in 10.0 mi SE 12.7 mph - N/A   Overcast
5:55 AM 38.5 °F 30.3 °F 35.1 °F 87% 29.66 in 10.0 mi SSE 13.8 mph - N/A   Overcast
6:15 AM 38.7 °F 29.8 °F 35.2 °F 87% 29.65 in 10.0 mi SSE 16.1 mph - N/A   Overcast
6:35 AM 40.5 °F 32.1 °F 37.0 °F 88% 29.64 in 10.0 mi SSE 16.1 mph - N/A   Overcast
6:55 AM 41.0 °F 33.9 °F 37.6 °F 88% 29.63 in 10.0 mi SSE 12.7 mph - N/A   Mostly Cloudy
7:15 AM 42.6 °F 34.6 °F 39.9 °F 90% 29.62 in 5.0 mi SSE 17.3 mph 21.9 mph 0.01 in Rain , Thunderstorm Heavy Thunderstorms and Rain
7:35 AM 43.3 °F 35.0 °F 40.8 °F 91% 29.62 in 10.0 mi South 19.6 mph - 0.03 in Thunderstorm Thunderstorm
7:55 AM 42.8 °F 35.1 °F 40.5 °F 91% 29.62 in 10.0 mi South 16.1 mph - 0.03 in Thunderstorm Thunderstorm
8:15 AM 42.8 °F 35.4 °F 41.0 °F 93% 29.63 in 7.0 mi South 15.0 mph - N/A   Mostly Cloudy
8:35 AM 42.4 °F 36.5 °F 40.5 °F 93% 29.65 in 7.0 mi SSW 10.4 mph - N/A   Overcast
8:55 AM 42.1 °F 36.6 °F 40.5 °F 94% 29.67 in 4.0 mi SW 9.2 mph - N/A Rain Light Rain
9:15 AM 42.1 °F 35.2 °F 40.5 °F 94% 29.64 in 4.0 mi South 12.7 mph - N/A   Overcast
9:35 AM 42.3 °F 35.1 °F 41.2 °F 96% 29.59 in 2.5 mi SSE 13.8 mph - N/A   Overcast
9:55 AM 43.2 °F 34.7 °F 42.3 °F 97% 29.60 in 3.0 mi SSE 19.6 mph - N/A   Scattered Clouds
10:15 AM 44.6 °F 36.6 °F 43.7 °F 97% 29.59 in 3.0 mi SSE 19.6 mph - N/A   Scattered Clouds
10:35 AM 48.0 °F - 47.1 °F 97% 29.57 in 3.0 mi SSE 19.6 mph - N/A   Overcast
10:55 AM 48.2 °F - 46.6 °F 94% 29.57 in 3.0 mi SSE 17.3 mph - N/A   Overcast
12:35 PM 50.0 °F - 49.1 °F 97% 29.51 in 5.0 mi South 15.0 mph 25.3 mph N/A   Overcast
12:55 PM 50.5 °F - 49.6 °F 97% 29.49 in 5.0 mi South 17.3 mph - N/A   Overcast
1:15 PM 51.6 °F - 50.5 °F 96% 29.48 in 5.0 mi South 15.0 mph - N/A   Overcast
1:35 PM 52.2 °F - 50.9 °F 95% 29.47 in 7.0 mi South 18.4 mph 24.2 mph N/A   Overcast
1:55 PM 52.5 °F - 51.3 °F 95% 29.47 in 5.0 mi South 18.4 mph 23.0 mph N/A   Overcast
2:15 PM 53.1 °F - 52.0 °F 96% 29.46 in 5.0 mi South 18.4 mph 28.8 mph N/A   Overcast
2:35 PM 53.6 °F - 52.7 °F 97% 29.45 in 4.0 mi South 20.7 mph 25.3 mph N/A   Overcast
5:15 PM 58.3 °F - 55.0 °F 89% 29.35 in 10.0 mi South 18.4 mph 28.8 mph N/A   Overcast
5:30 PM 59.0 °F - 55.4 °F 88% 29.33 in 10.0 mi South 20.7 mph 27.6 mph N/A   Overcast
5:35 PM 59.2 °F - 55.6 °F 88% 29.34 in 10.0 mi South 18.4 mph 29.9 mph N/A Thunderstorm Overcast
5:55 PM 58.3 °F - 53.1 °F 83% 29.40 in 10.0 mi WSW 12.7 mph 28.8 mph N/A Rain , Thunderstorm Thunderstorms and Rain
6:15 PM 54.9 °F - 52.7 °F 92% 29.43 in 7.0 mi SW 23.0 mph 34.5 mph 0.18 in Rain , Thunderstorm Light Thunderstorms and Rain
6:35 PM 53.8 °F - 51.4 °F 92% 29.44 in 7.0 mi WSW 17.3 mph 26.5 mph 0.19 in Rain , Thunderstorm Light Thunderstorms and Rain
6:55 PM 51.4 °F - 44.4 °F 77% 29.47 in 10.0 mi West 28.8 mph 34.5 mph 0.19 in   Overcast
7:15 PM 48.6 °F - 40.6 °F 74% 29.51 in 10.0 mi West 33.4 mph 40.3 mph N/A   Overcast
7:35 PM 44.6 °F 33.9 °F 37.0 °F 75% 29.55 in 10.0 mi West 35.7 mph 47.2 mph N/A   Mostly Cloudy
7:55 PM 41.5 °F 30.4 °F 34.3 °F 76% 29.57 in 10.0 mi West 31.1 mph 47.2 mph N/A   Mostly Cloudy
8:15 PM 40.5 °F 29.7 °F 33.1 °F 75% 29.60 in 10.0 mi West 26.5 mph 43.7 mph N/A   Overcast
8:35 PM 40.1 °F 29.5 °F 32.9 °F 75% 29.61 in 10.0 mi West 25.3 mph 40.3 mph N/A   Overcast
8:55 PM 39.6 °F 29.5 °F 32.2 °F 75% 29.62 in 10.0 mi West 21.9 mph 35.7 mph N/A   Overcast
9:15 PM 38.5 °F 27.8 °F 32.0 °F 78% 29.61 in 10.0 mi West 23.0 mph 32.2 mph N/A   Mostly Cloudy
9:35 PM 38.3 °F 28.1 °F 32.0 °F 78% 29.62 in 10.0 mi WSW 20.7 mph 29.9 mph N/A   Scattered Clouds
9:55 PM 37.8 °F 26.8 °F 31.8 °F 79% 29.62 in 10.0 mi West 23.0 mph 32.2 mph N/A   Clear
10:15 PM 37.2 °F 27.0 °F 31.6 °F 80% 29.63 in 10.0 mi West 19.6 mph 27.6 mph N/A   Clear
10:35 PM 36.7 °F 27.2 °F 31.1 °F 80% 29.64 in 10.0 mi WSW 16.1 mph 25.3 mph N/A   Clear
10:55 PM 36.5 °F 27.0 °F 30.7 °F 80% 29.62 in 10.0 mi West 16.1 mph 23.0 mph N/A   Clear
11:15 PM 36.1 °F 26.2 °F 30.4 °F 80% 29.62 in 10.0 mi West 17.3 mph 23.0 mph N/A   Clear
11:35 PM 36.0 °F 26.3 °F 30.6 °F 81% 29.62 in 10.0 mi WSW 16.1 mph 23.0 mph N/A   Clear
11:55 PM 36.0 °F 26.0 °F 30.7 °F 81% 29.63 in 10.0 mi WSW 17.3 mph 24.2 mph N/A   Clear